Onweer radar Meer informatie blitzortung!


Regen radar Meer informatie rain snow radar


Bezoek onze andere website:

Template documentation
and downloads

And another site



15 daagse weersverwachting Mo i Rana (NO)

  • Overzicht
  • Per uur
  • 15 dagen
  • Extra
  • Vergelijk
  • Kaarten
  • Dagkaart
  • Meer »
  • Info
  • Statistieken
  • Directe link
    Temp 6h Neerslag Wind  
 06:59     18:52    Daglengte: 11:53 Morgen
02:00
2.2 mm
2
08:00
3.6 mm
2
14:00
1.5 mm
5
20:00
1.7 mm
3
 07:03     18:48    Daglengte: 11:45 Zondag 26 Sep
02:00
 
2
08:00
6.3 mm
1
14:00
16.0 mm
1
20:00
12.4 mm
1
 07:06     18:44    Daglengte: 11:38 Maandag 27 Sep
02:00
 
2
08:00
 
3
14:00
16°
 
3
20:00
13°
 
4
Locatie info
Region: Nordland
Latitude: 66.3106°N
Longitude: 14.1346°E
40 masl
Postcode: 8622
Temp/Neerslag /Baro Onweer/Dauwpunt
    Temp Baro 1h Neerslag Dauwpunt Wind UV Bewolking  
 06:56     18:56    Daglengte: 12:00 Vandaag
23:00
Voelt als: 4.9°
987.1 hPa
49%
4.5°
3
Windvlaag: 1 m/s
64%
 06:59     18:52    Daglengte: 11:53 Morgen
00:00
Voelt als: 4.7°
987.0 hPa 0.5 mm
82%
4.3°
3
Windvlaag: 1 m/s
69%
01:00
Voelt als: 4.8°
987.1 hPa 0.6 mm
82%
4.2°
2
Windvlaag: 1.9 m/s
73%
02:00
Voelt als: 4.8°
987.2 hPa 1.1 mm
82%
4.3°
2
Windvlaag: 1.3 m/s
86%
03:00
Voelt als: 5.0°
987.5 hPa
82%
4.6°
2
Windvlaag: -1.1 m/s
85%
04:00
Voelt als: 5.4°
988.0 hPa
82%
4.8°
1
Windvlaag: -1.4 m/s
81%
05:00
Voelt als: 5.8°
988.5 hPa
82%
4.9°
1
Windvlaag: -0.3 m/s
86%
06:00
Voelt als: 5.6°
989.2 hPa
82%
5.0°
1
Windvlaag: -0.8 m/s
79%
07:00
Voelt als: 5.1°
990.6 hPa 1.8 mm
82%
4.5°
1
Windvlaag: -0.8 m/s
73%
08:00
Voelt als: 5.0°
992.4 hPa 1.8 mm
82%
4.5°
2
Windvlaag: 0.3 m/s
60%
09:00
Voelt als: 4.4°
994.0 hPa 1.5 mm
82%
4.8°
3
Windvlaag: 6 m/s
60%
10:00
Voelt als: 4.7°
995.7 hPa
82%
5.2°
3
Windvlaag: 6.7 m/s
66%
11:00
Voelt als: 5.3°
997.0 hPa
82%
5.1°
4
Windvlaag: 7.8 m/s
52%
12:00
Voelt als: 6.0°
998.2 hPa
82%
5.7°
4
Windvlaag: 7.1 m/s
19%
13:00
Voelt als: 6.7°
999.7 hPa
41%
5.7°
4
Windvlaag: 6.5 m/s
12%
14:00
Voelt als: 6.7°
1001.2 hPa
76%
6.0°
5
Windvlaag: 6.3 m/s
22%
15:00
Voelt als: 5.9°
1002.5 hPa
80%
6.3°
5
Windvlaag: 7.4 m/s
62%
16:00
Voelt als: 5.4°
1003.8 hPa 1.7 mm
82%
5.4°
5
Windvlaag: 7.2 m/s
33%
17:00
Voelt als: 5.3°
1005.2 hPa
82%
4.9°
4
Windvlaag: 6.6 m/s
62%
18:00
Voelt als: 4.7°
1006.3 hPa
82%
4.1°
4
Windvlaag: 6.5 m/s
29%
19:00
Voelt als: 4.5°
1007.4 hPa
36%
4.7°
3
Windvlaag: 5.6 m/s
21%
20:00
Voelt als: 4.5°
1008.3 hPa
32%
4.9°
3
Windvlaag: 4.8 m/s
55%
21:00
Voelt als: 4.5°
1009.1 hPa
79%
5.1°
3
Windvlaag: 5.3 m/s
68%
22:00
Voelt als: 4.6°
1009.6 hPa
79%
4.7°
2
Windvlaag: 5.8 m/s
78%
23:00
Voelt als: 4.5°
1010.3 hPa
76%
4.7°
3
Windvlaag: 6 m/s
63%
 07:03     18:48    Daglengte: 11:45 Zondag 26 Sep
00:00
Voelt als: 4.8°
1010.7 hPa
81%
4.7°
2
Windvlaag: 4.9 m/s
74%
01:00
Voelt als: 4.8°
1011.3 hPa
82%
4.7°
2
Windvlaag: 3.9 m/s
70%
02:00
Voelt als: 4.9°
1011.6 hPa
71%
4.5°
2
Windvlaag: 3.6 m/s
56%
03:00
Voelt als: 4.6°
1011.9 hPa
25%
4.2°
2
Windvlaag: 3.1 m/s
79%
04:00
Voelt als: 3.6°
1012.0 hPa
16%
3.5°
2
Windvlaag: 2.2 m/s
84%
05:00
Voelt als: 3.4°
1012.1 hPa
14%
3.1°
2
Windvlaag: 2.2 m/s
79%
06:00
Voelt als: 3.7°
1012.3 hPa
26%
3.1°
2
Windvlaag: 1.1 m/s
70%
07:00
Voelt als: 4.0°
1012.6 hPa 2.9 mm
82%
3.2°
2
Windvlaag: 1.1 m/s
83%
08:00
Voelt als: 4.7°
1012.7 hPa 3.3 mm
82%
3.7°
1
Windvlaag: -0.3 m/s
77%
09:00
Voelt als: 5.6°
1012.9 hPa 3.7 mm
82%
4.4°
1
Windvlaag: -0.8 m/s
83%
10:00
Voelt als: 6.4°
1013.3 hPa 3.5 mm
82%
4.4°
1
Windvlaag: 0 m/s
86%
11:00
Voelt als: 6.8°
1013.7 hPa 3.0 mm
82%
5.2°
1
Windvlaag: 2.2 m/s
86%
12:00
1014.2 hPa 3.0 mm
75%
5.7°
1
Windvlaag: 2.2 m/s
86%
13:00
Voelt als: 7.7°
1014.6 hPa 2.9 mm
82%
6.3°
1
Windvlaag: 2.1 m/s
86%
14:00
1014.9 hPa
82%
7.1°
1
Windvlaag: 2.1 m/s
86%
15:00
Voelt als: 8.6°
1015.5 hPa 3.2 mm
82%
7.4°
1
Windvlaag: 1.8 m/s
86%
16:00
1016.0 hPa
70%
7.5°
1
Windvlaag: 1.7 m/s
86%
17:00
Voelt als: 8.7°
1015.8 hPa 4.6 mm
77%
7.3°
1
Windvlaag: 2.2 m/s
100%
18:00
1016.1 hPa 4.6 mm
96%
5.8°
1
Windvlaag: 1.4 m/s
100%
19:00
Voelt als: 7.9°
1016.5 hPa
38%
6.7°
1
Windvlaag: 1.8 m/s
98%
20:00
Voelt als: 7.8°
1016.8 hPa
21%
6.6°
1
Windvlaag: 1.3 m/s
87%
21:00
Voelt als: 7.7°
1017.2 hPa
23%
6.3°
1
Windvlaag: 1.3 m/s
88%
22:00
Voelt als: 7.6°
1017.4 hPa
21%
5.9°
1
Windvlaag: 1.1 m/s
92%
23:00
Voelt als: 7.5°
1017.5 hPa
21%
4.6°
2
Windvlaag: 0.8 m/s
63%
 07:06     18:44    Daglengte: 11:38 Maandag 27 Sep
00:00
Voelt als: 6.6°
1017.4 hPa
21%
5.1°
2
Windvlaag: 0.5 m/s
69%
01:00
Voelt als: 6.4°
1017.5 hPa
21%
5.1°
2
Windvlaag: 0.4 m/s
68%
02:00
Voelt als: 6.5°
1017.3 hPa
21%
4.9°
2
Windvlaag: -0 m/s
61%
03:00
Voelt als: 6.7°
1017.3 hPa
21%
5.2°
2
Windvlaag: -0.3 m/s
73%
04:00
Voelt als: 7.0°
1017.3 hPa
25%
5.7°
2
Windvlaag: -0.3 m/s
76%
05:00
Voelt als: 7.3°
1017.3 hPa
37%
5.7°
2
Windvlaag: 0.3 m/s
75%
06:00
Voelt als: 7.3°
1017.3 hPa
42%
5.4°
2
Windvlaag: 0.4 m/s
75%
07:00
Voelt als: 7.5°
1017.3 hPa
26%
5.8°
2
Windvlaag: 0.1 m/s
66%
08:00
Voelt als: 8.0°
1017.4 hPa
21%
3.1°
3
Windvlaag: -0 m/s
48%
09:00
10°
1017.6 hPa
21%
3.5°
2
Windvlaag: -0.1 m/s
48%
10:00
12°
1017.7 hPa
21%
5.5°
2
Windvlaag: -0.3 m/s
40%
11:00
14°
1017.7 hPa
21%
5.7°
3
Windvlaag: -0.7 m/s
34%
12:00
15°
1017.6 hPa
21%
5.9°
3
Windvlaag: -0.4 m/s
34%
13:00
16°
1017.6 hPa
21%
6.2°
3
Windvlaag: 0.1 m/s
35%
14:00
16°
1017.8 hPa
21%
5.7°
3
Windvlaag: 0.5 m/s
28%
15:00
16°
1018.0 hPa
21%
6.8°
4
Windvlaag: 11.1 m/s
9%
16:00
16°
1018.1 hPa
21%
6.5°
4
Windvlaag: 8.6 m/s
11%
17:00
15°
1018.2 hPa
21%
7.3°
4
Windvlaag: 11.2 m/s
7%
18:00
14°
1018.3 hPa
21%
7.7°
4
Windvlaag: 11.9 m/s
12%
19:00
13°
1018.4 hPa
21%
6.7°
4
Windvlaag: 12.8 m/s
14%
20:00
13°
1018.5 hPa
21%
6.0°
4
Windvlaag: 12.7 m/s
14%
21:00
13°
1019.3 hPa 13.6 mm
100%
6.5°
4
Windvlaag: 12.7 m/s
54%
22:00
12°
1019.5 hPa 13.6 mm
100%
6.7°
4
Windvlaag: 13.3 m/s
51%
Temp/Neerslag /Baro Onweer/Dauwpunt
    Temp Baro Neerslag Dauwpunt Wind Bewolking  
 06:56     18:56    Daglengte: 12:00 Vandaag
23:00
Voelt als: 4.9°
987.1 hPa   4.5°
3
64%
 06:59     18:52    Daglengte: 11:53 Morgen
02:00
Voelt als: 4.8°
987.2 hPa 2.2 mm 4.3°
2
86%
05:00
Voelt als: 5.8°
988.5 hPa   4.9°
1
86%
08:00
Voelt als: 5.0°
992.4 hPa 3.6 mm 4.5°
2
60%
11:00
Voelt als: 5.3°
997.0 hPa 1.5 mm 5.1°
4
52%
14:00
Voelt als: 6.7°
1001.2 hPa   6.0°
5
22%
17:00
Voelt als: 5.3°
1005.2 hPa 1.7 mm 4.9°
4
62%
20:00
Voelt als: 4.5°
1008.3 hPa   4.9°
3
55%
23:00
Voelt als: 4.5°
1010.3 hPa   4.7°
3
63%
 07:03     18:48    Daglengte: 11:45 Zondag 26 Sep
02:00
Voelt als: 4.9°
1011.6 hPa   4.5°
2
56%
05:00
Voelt als: 3.4°
1012.1 hPa   3.1°
2
79%
08:00
Voelt als: 4.7°
1012.7 hPa 6.3 mm 3.7°
1
77%
11:00
Voelt als: 6.8°
1013.7 hPa 10.1 mm 5.2°
1
86%
14:00
1014.9 hPa 5.9 mm 7.1°
1
86%
17:00
Voelt als: 8.7°
1015.8 hPa 7.8 mm 7.3°
1
100%
20:00
Voelt als: 7.8°
1016.8 hPa 4.6 mm 6.6°
1
87%
23:00
Voelt als: 7.5°
1017.5 hPa   4.6°
2
63%
 07:06     18:44    Daglengte: 11:38 Maandag 27 Sep
02:00
Voelt als: 6.5°
1017.3 hPa   4.9°
2
61%
05:00
Voelt als: 7.3°
1017.3 hPa   5.7°
2
75%
08:00
Voelt als: 8.0°
1017.4 hPa   3.1°
3
48%
11:00
14°
1017.7 hPa   5.7°
3
34%
14:00
16°
1017.8 hPa   5.7°
3
28%
17:00
15°
1018.2 hPa   7.3°
4
7%
20:00
13°
1018.5 hPa   6.0°
4
14%
23:00
11°
1019.7 hPa 40.7 mm 5.9°
4
41%
 07:09     18:40    Daglengte: 11:31 Dinsdag 28 Sep
02:00
10°
Voelt als: 6.6°
1020.4 hPa 40.6 mm 3.3°
7
2%
05:00
Voelt als: 4.9°
1022.9 hPa 22.3 mm 5.1°
4
1%
08:00
Voelt als: 6.1°
1023.4 hPa 22.3 mm 5.3°
3
1%
11:00
Voelt als: 8.0°
1024.6 hPa 22.3 mm 5.6°
2
1%
14:00
10°
Voelt als: 9.3°
1025.6 hPa 22.3 mm 6.0°
1
1%
17:00
10°
1026.2 hPa 22.3 mm 6.3°
1
1%
20:00
1026.6 hPa 22.3 mm 6.2°
1
1%
23:00
Voelt als: 8.8°
1027.1 hPa 22.7 mm 7.1°
1
1%
 07:12     18:36    Daglengte: 11:24 Woensdag 29 Sep
02:00
1026.8 hPa 23.1 mm 7.5°
1
1%
05:00
Voelt als: 8.5°
1026.0 hPa 23.6 mm 7.6°
1
1%
08:00
Voelt als: 8.6°
1025.4 hPa 23.7 mm 7.5°
1
1%
11:00
10°
Voelt als: 9.6°
1025.0 hPa 23.7 mm 7.7°
1
1%
14:00
11°
1024.5 hPa 23.7 mm 8.3°
2
1%
17:00
11°
1024.2 hPa 23.7 mm 8.4°
2
1%
20:00
Voelt als: 7.7°
1023.8 hPa 23.7 mm 6.5°
2
1%
23:00
Voelt als: 6.4°
1023.6 hPa 23.7 mm 5.4°
2
1%
 07:16     18:32    Daglengte: 11:16 Donderdag 30 Sep
02:00
Voelt als: 6.3°
1023.1 hPa 23.7 mm 5.1°
2
1%
05:00
Voelt als: 4.8°
1022.2 hPa 23.7 mm 4.0°
2
0%
08:00
Voelt als: 5.3°
1021.7 hPa 23.7 mm 4.0°
2
1%
11:00
11°
1020.9 hPa 23.7 mm 5.1°
2
1%
14:00
12°
1020.2 hPa 23.7 mm 5.2°
2
1%
17:00
11°
1020.2 hPa 23.7 mm 6.1°
2
1%
20:00
Voelt als: 6.9°
1020.6 hPa 23.7 mm 4.9°
2
1%
23:00
Voelt als: 6.2°
1020.6 hPa 23.7 mm 4.8°
2
1%
 07:19     18:29    Daglengte: 11:10 Vrijdag 01 Okt
02:00
Voelt als: 7.0°
1020.4 hPa 23.7 mm 5.5°
3
1%
05:00
Voelt als: 6.7°
1019.9 hPa 23.7 mm 5.3°
3
1%
08:00
Voelt als: 5.8°
1019.6 hPa 23.7 mm 4.9°
3
1%
11:00
10°
1019.3 hPa 23.7 mm 4.5°
3
1%
14:00
11°
1018.4 hPa 23.7 mm 4.4°
3
1%
17:00
Voelt als: 7.4°
1018.0 hPa 23.7 mm 5.8°
3
1%
20:00
Voelt als: 6.9°
1018.5 hPa 47.5 mm 5.7°
3
1%
 07:22     18:25    Daglengte: 11:03 Zaterdag 02 Okt
02:00
Voelt als: 4.2°
1016.9 hPa 47.5 mm 4.4°
3
1%
08:00
Voelt als: 5.1°
1014.6 hPa 47.6 mm 4.8°
3
1%
14:00
10°
Voelt als: 7.7°
1013.0 hPa 47.6 mm 5.9°
3
1%
20:00
Voelt als: 6.5°
1012.5 hPa 47.6 mm 5.6°
2
1%
 07:25     18:21    Daglengte: 10:56 Zondag 03 Okt
02:00
Voelt als: 4.9°
1012.0 hPa 47.6 mm 5.0°
2
1%
08:00
Voelt als: 4.3°
1011.3 hPa 47.7 mm 4.7°
3
1%
14:00
10°
Voelt als: 7.8°
1010.6 hPa 47.7 mm 2.8°
4
1%
20:00
Voelt als: 4.8°
1012.5 hPa 47.7 mm 4.2°
3
1%
 07:29     18:17    Daglengte: 10:48 Maandag 04 Okt
02:00
Voelt als: 4.6°
1014.3 hPa 47.7 mm 4.4°
3
1%
08:00
Voelt als: 3.7°
1014.0 hPa 47.8 mm 5.2°
4
1%
14:00
Voelt als: 2.2°
1015.6 hPa 51.6 mm 4.6°
3
1%
20:00
Voelt als: 6.7°
1011.6 hPa 2.3 mm 6.7°
2
88%
 07:32     18:13    Daglengte: 10:41 Dinsdag 05 Okt
02:00
Voelt als: 6.3°
1012.2 hPa 1.5 mm 6.3°
2
88%
08:00
Voelt als: 5.9°
1012.4 hPa 1.9 mm 6.3°
2
88%
14:00
10°
Voelt als: 8.4°
1012.9 hPa 0.7 mm 6.8°
2
84%
20:00
Voelt als: 6.0°
1012.6 hPa 1.4 mm 6.5°
3
79%
 07:35     18:09    Daglengte: 10:34 Woensdag 06 Okt
02:00
Voelt als: 5.7°
1012.2 hPa 1.7 mm 6.3°
3
81%
08:00
Voelt als: 5.5°
1011.4 hPa 1.4 mm 5.9°
2
82%
14:00
10°
Voelt als: 9.0°
1011.1 hPa 1.4 mm 6.9°
2
82%
20:00
Voelt als: 6.7°
1011.1 hPa 1.9 mm 6.0°
2
76%
 07:38     18:05    Daglengte: 10:27 Donderdag 07 Okt
02:00
Voelt als: 5.4°
1011.2 hPa 1.2 mm 5.4°
2
75%
08:00
Voelt als: 4.9°
1010.0 hPa 1.4 mm 5.3°
2
81%
14:00
Voelt als: 7.5°
1009.8 hPa 1.9 mm 6.4°
2
89%
20:00
Voelt als: 5.8°
1010.0 hPa 1.8 mm 5.7°
2
89%
 07:42     18:02    Daglengte: 10:20 Vrijdag 08 Okt
02:00
Voelt als: 5.6°
1010.9 hPa 2.0 mm 5.5°
1
82%
08:00
Voelt als: 5.6°
1011.4 hPa 2.2 mm 5.4°
1
83%
14:00
Voelt als: 7.7°
1012.6 hPa 2.2 mm 5.8°
1
86%
20:00
Voelt als: 5.9°
1013.3 hPa 2.0 mm 5.3°
1
85%
 07:45     17:58    Daglengte: 10:13 Zaterdag 09 Okt
02:00
Voelt als: 5.2°
1014.3 hPa 1.7 mm 4.9°
2
87%
08:00
Voelt als: 4.8°
1014.0 hPa 1.4 mm 4.7°
2
94%
14:00
Voelt als: 7.0°
1014.7 hPa   5.6°
2
91%
20:00
Voelt als: 5.2°
1014.9 hPa 1.2 mm 5.1°
2
88%
  CAPE Lifted Index Hail Supercell Tornado SRH 3km CL BTM PRES CL TOP PRES Swiss DWD icon SMHI TS
 06:56     18:56    Daglengte: 12:00 Vandaag
23:00 0 J/kg 5.0 K 0 % 0 % 0 % 0 m²/s² 0 0 5.39 61
 06:59     18:52    Daglengte: 11:53 Morgen
00:00 0 J/kg 4.0 K 0 % 0 % 0 % 0 m²/s² 0 0 4.75 61
01:00 0 J/kg 2.7 K 0 % 0 % 0 % 0 m²/s² 0 0 3.06 61
02:00 0 J/kg 1.5 K 0 % 0 % 0 % 0 m²/s² 0 0 2.16 61
03:00 0 J/kg 0.7 K 0 % 0 % 0 % 0 m²/s² 0 0 1.66 61
04:00 0 J/kg 0.0 K 0 % 0 % 0 % 0 m²/s² 0 0 0.6 61
05:00 0 J/kg 0.8 K 0 % 0 % 0 % 0 m²/s² 0 0 1.37 61
06:00 0 J/kg 1.2 K 0 % 0 % 0 % 0 m²/s² 0 0 2.22 61
07:00 0 J/kg 2.3 K 0 % 0 % 0 % 0 m²/s² 0 0 3.08 61
08:00 0 J/kg 3.8 K 0 % 0 % 0 % 0 m²/s² 0 0 4.19 61
09:00 31 J/kg 3.6 K 0 % 0 % 0 % 0 m²/s² 0 0 4.05 61
10:00 87 J/kg 2.5 K 0 % 0 % 0 % 0 m²/s² 0 0 2.92 3
11:00 65 J/kg 2.8 K 0 % 0 % 0 % 0 m²/s² 0 0 3.19 3
12:00 104 J/kg 2.6 K 0 % 0 % 0 % 0 m²/s² 0 0 2.96 2
13:00 151 J/kg 2.3 K 0 % 0 % 0 % 0 m²/s² 0 0 2.93 2
14:00 158 J/kg 2.5 K 0 % 0 % 0 % 0 m²/s² 0 0 3.43 2
15:00 127 J/kg 3.4 K 0 % 0 % 0 % 0 m²/s² 0 0 4.66 2
16:00 57 J/kg 5.3 K 0 % 0 % 0 % 0 m²/s² 0 0 8.45 3
17:00 68 J/kg 6.2 K 0 % 0 % 0 % 0 m²/s² 0 0 10.37 3
18:00 68 J/kg 7.1 K 0 % 0 % 0 % 0 m²/s² 0 0 12.26 2
19:00 60 J/kg 8.2 K 0 % 0 % 0 % 0 m²/s² 0 0 13.99 2
20:00 37 J/kg 9.6 K 0 % 0 % 0 % 0 m²/s² 0 0 16.2 2
21:00 32 J/kg 10.9 K 0 % 0 % 0 % 0 m²/s² 0 0 17.53 61
22:00 9 J/kg 11.9 K 0 % 0 % 0 % 0 m²/s² 0 0 18.56 3
23:00 17 J/kg 12.5 K 0 % 0 % 0 % 0 m²/s² 0 0 19.4 3
 07:03     18:48    Daglengte: 11:45 Zondag 26 Sep
00:00 8 J/kg 13.3 K 0 % 0 % 0 % 0 m²/s² 0 0 19.6 3
01:00 11 J/kg 13.9 K 0 % 0 % 0 % 0 m²/s² 0 0 19.09 3
02:00 10 J/kg 14.4 K 0 % 0 % 0 % 0 m²/s² 0 0 17.52 3
03:00 9 J/kg 14.9 K 0 % 0 % 0 % 0 m²/s² 0 0 16.46 3
04:00 0 J/kg 15.9 K 0 % 0 % 0 % 0 m²/s² 0 0 16.26 3
05:00 0 J/kg 16.3 K 0 % 0 % 0 % 0 m²/s² 0 0 16.51 3
06:00 0 J/kg 14.7 K 0 % 0 % 0 % 0 m²/s² 0 0 14.88 3
07:00 0 J/kg 12.2 K 0 % 0 % 0 % 0 m²/s² 0 0 12.32 61
08:00 0 J/kg 11.0 K 0 % 0 % 0 % 0 m²/s² 0 0 11.3 61
09:00 0 J/kg 9.4 K 0 % 0 % 0 % 0 m²/s² 0 0 12.55 61
10:00 0 J/kg 8.4 K 0 % 0 % 0 % 0 m²/s² 0 0 14.61 61
11:00 0 J/kg 8.5 K 0 % 0 % 0 % 0 m²/s² 0 0 13.15 61
12:00 0 J/kg 7.9 K 0 % 0 % 0 % 0 m²/s² 0 0 9.88 61
13:00 0 J/kg 7.5 K 0 % 0 % 0 % 0 m²/s² 0 0 10.68 61
14:00 0 J/kg 6.7 K 0 % 0 % 0 % 0 m²/s² 0 0 9.01 3
15:00 0 J/kg 5.8 K 0 % 0 % 0 % 0 m²/s² 0 0 6.82 61
16:00 0 J/kg 5.9 K 0 % 0 % 0 % 0 m²/s² 0 0 6.65 61
17:00 0 J/kg 5.4 K 0 % 0 % 0 % 0 m²/s² 0 0 6.09 3
18:00 0 J/kg 5.1 K 0 % 0 % 0 % 0 m²/s² 0 0 5.94 61
19:00 0 J/kg 5.0 K 0 % 0 % 0 % 0 m²/s² 0 0 5.93 3
20:00 0 J/kg 5.4 K 0 % 0 % 0 % 0 m²/s² 0 0 6.33 3
21:00 0 J/kg 5.4 K 0 % 0 % 0 % 0 m²/s² 0 0 6.42 3
22:00 0 J/kg 5.1 K 0 % 0 % 0 % 0 m²/s² 0 0 6.84 3
23:00 0 J/kg 5.2 K 0 % 0 % 0 % 0 m²/s² 0 0 7.06 3
 07:06     18:44    Daglengte: 11:38 Maandag 27 Sep
00:00 0 J/kg 5.1 K 0 % 0 % 0 % 0 m²/s² 0 0 6.84 3
01:00 0 J/kg 5.5 K 0 % 0 % 0 % 0 m²/s² 0 0 7.06 3
02:00 0 J/kg 5.9 K 0 % 0 % 0 % 0 m²/s² 0 0 6.95 3
03:00 0 J/kg 6.2 K 0 % 0 % 0 % 0 m²/s² 0 0 7.01 3
04:00 0 J/kg 6.3 K 0 % 0 % 0 % 0 m²/s² 0 0 6.96 3
05:00 0 J/kg 6.9 K 0 % 0 % 0 % 0 m²/s² 0 0 7.95 3
06:00 0 J/kg 6.8 K 0 % 0 % 0 % 0 m²/s² 0 0 7.64 3
07:00 0 J/kg 6.7 K 0 % 0 % 0 % 0 m²/s² 0 0 7.84 3
08:00 0 J/kg 6.9 K 0 % 0 % 0 % 0 m²/s² 0 0 8.1 2
09:00 0 J/kg 7.2 K 0 % 0 % 0 % 0 m²/s² 0 0 8.1 3
10:00 0 J/kg 7.9 K 0 % 0 % 0 % 0 m²/s² 0 0 8.68 3
11:00 0 J/kg 8.3 K 0 % 0 % 0 % 0 m²/s² 0 0 9.35 3
12:00 0 J/kg 8.3 K 0 % 0 % 0 % 0 m²/s² 0 0 9.14 2
13:00 0 J/kg 8.7 K 0 % 0 % 0 % 0 m²/s² 0 0 9.69 1
14:00 0 J/kg 9.2 K 0 % 0 % 0 % 0 m²/s² 0 0 10.22 2
15:00 0 J/kg 9.4 K 0 % 0 % 0 % 0 m²/s² 0 0 10.39 1
16:00 0 J/kg 9.4 K 0 % 0 % 0 % 0 m²/s² 0 0 10.39 1
17:00 0 J/kg 9.0 K 0 % 0 % 0 % 0 m²/s² 0 0 10.14 2
18:00 0 J/kg 8.6 K 0 % 0 % 0 % 0 m²/s² 0 0 9.38 1
19:00 0 J/kg 7.8 K 0 % 0 % 0 % 0 m²/s² 0 0 8.13 2
20:00 0 J/kg 6.8 K 0 % 0 % 0 % 0 m²/s² 0 0 7.55 2
21:00 0 J/kg 6.7 K 0 % 0 % 0 % 0 m²/s² 0 0 7.69
22:00 0 J/kg 6.8 K 0 % 0 % 0 % 0 m²/s² 0 0 7.76
Temp Baro Wind Neerslag
  EWN Forecast EWN WRFDA DWD ICON FMI HIRLAM MET Norway GFS
 06:56     18:56    Daglengte: 12:00 Vandaag
23:00 7.0° 987.1 hPa 3.0 m/s 0.0 mm 7.1° 985.3 hPa 2.4 m/s 0.8 mm 7.3° 987.8 hPa 3.0 m/s -1.9 mm 7.9° 986.4 hPa 3.1 m/s 0.0 mm 6.9° 988.7 hPa 1.8 m/s
 06:59     18:52    Daglengte: 11:53 Morgen
02:00 6.1° 987.2 hPa 1.8 m/s 2.2 mm 6.5° 984.0 hPa 3.9 m/s 5.1 mm 6.2° 987.8 hPa 1.5 m/s 1.9 mm 7.4° 986.1 hPa 2.5 m/s 0.0 mm 6.1° 989.1 hPa 1.5 m/s
05:00 6.1° 988.5 hPa 1.1 m/s 0.0 mm 7.0° 985.0 hPa 0.5 m/s 16.6 mm 5.9° 989.7 hPa 1.4 m/s 0.8 mm 7.9° 986.8 hPa 1.2 m/s 0.0 mm 4.9° 990.6 hPa 0.9 m/s
08:00 6.1° 992.4 hPa 1.7 m/s 3.6 mm 7.2° 989.4 hPa 3.7 m/s 19.8 mm 6.0° 992.9 hPa 0.4 m/s 1.1 mm 7.7° 991.1 hPa 2.7 m/s 0.0 mm 4.4° 994.2 hPa 1.4 m/s
11:00 7.7° 997.0 hPa 3.8 m/s 1.5 mm 9.1° 994.3 hPa 7.8 m/s 20.4 mm 7.5° 997.1 hPa 2.9 m/s 0.2 mm 9.4° 996.9 hPa 3.4 m/s 0.0 mm 5.2° 999.0 hPa 1.7 m/s
14:00 9.2° 1001.2 hPa 4.7 m/s 0.0 mm 9.6° 999.1 hPa 6.6 m/s 21.9 mm 9.7° 1000.8 hPa 5.0 m/s 0.1 mm 9.6° 1001.5 hPa 4.6 m/s 0.0 mm 6.7° 1002.3 hPa 2.1 m/s
17:00 8.0° 1005.2 hPa 4.5 m/s 1.7 mm 8.5° 1003.1 hPa 7.0 m/s 23.4 mm 8.4° 1004.4 hPa 4.0 m/s 0.3 mm 8.3° 1005.5 hPa 4.2 m/s 0.0 mm 7.4° 1006.5 hPa 3.8 m/s
20:00 6.4° 1008.3 hPa 2.6 m/s 0.0 mm 7.0° 1006.5 hPa 4.5 m/s 25.2 mm 6.7° 1007.8 hPa 2.4 m/s 0.1 mm 7.3° 1008.6 hPa 1.9 m/s 0.0 mm 5.7° 1009.9 hPa 2.2 m/s
23:00 6.4° 1010.3 hPa 2.5 m/s 0.0 mm 6.6° 1008.5 hPa 5.5 m/s 31.1 mm 6.8° 1009.6 hPa 1.6 m/s 0.1 mm 7.4° 1010.9 hPa 2.3 m/s 0.0 mm 5.8° 1012.1 hPa 1.6 m/s
 07:03     18:48    Daglengte: 11:45 Zondag 26 Sep
02:00 6.0° 1011.6 hPa 1.7 m/s 0.0 mm 4.7° 1010.1 hPa 3.1 m/s 32.8 mm 6.6° 1011.5 hPa 0.9 m/s 0.1 mm 6.9° 1012.5 hPa 1.5 m/s 0.0 mm 5.7° 1013.7 hPa 2.2 m/s
05:00 5.1° 1012.1 hPa 2.1 m/s 0.0 mm 5.9° 1011.2 hPa 2.6 m/s 32.8 mm 5.1° 1012.1 hPa 1.6 m/s 0.0 mm 6.7° 1013.4 hPa 2.5 m/s 0.0 mm 4.1° 1014.7 hPa 1.8 m/s
08:00 5.6° 1012.7 hPa 1.4 m/s 6.3 mm 5.9° 1012.0 hPa 1.5 m/s 34.2 mm 5.5° 1012.8 hPa 1.4 m/s 0.3 mm 7.2° 1014.1 hPa 1.3 m/s 0.0 mm 5.4° 1015.2 hPa 1.4 m/s
11:00 6.8° 1013.7 hPa 0.7 m/s 10.1 mm 8.1° 1012.2 hPa 0.8 m/s 38.6 mm 6.8° 1014.0 hPa 1.1 m/s 2.4 mm 8.2° 1014.4 hPa 0.1 m/s 0.0 mm 6.0° 1016.6 hPa 1.1 m/s
14:00 8.4° 1014.9 hPa 0.9 m/s 5.9 mm 10.6° 1013.5 hPa 3.0 m/s 39.7 mm 8.2° 1015.1 hPa 1.7 m/s 0.9 mm 9.8° 1015.8 hPa 0.6 m/s 0.0 mm 7.1° 1018.0 hPa 0.7 m/s
17:00 8.7° 1015.8 hPa 1.1 m/s 7.8 mm 12.1° 1015.0 hPa 2.1 m/s 40.5 mm 8.6° 1016.6 hPa 0.8 m/s 0.6 mm 8.5° 1018.7 hPa 1.3 m/s
20:00 8.2° 1016.8 hPa 1.3 m/s 4.6 mm 9.7° 1016.2 hPa 1.9 m/s 40.7 mm 8.2° 1017.2 hPa 1.1 m/s 0.1 mm 7.5° 1019.5 hPa 2.2 m/s
23:00 8.4° 1017.5 hPa 1.8 m/s 0.0 mm 11.7° 1017.1 hPa 1.8 m/s 40.7 mm 8.0° 1017.9 hPa 1.5 m/s 0.0 mm 7.6° 1020.3 hPa 2.9 m/s
 07:06     18:44    Daglengte: 11:38 Maandag 27 Sep
02:00 8.0° 1017.3 hPa 2.4 m/s 0.0 mm 8.2° 1017.7 hPa 3.1 m/s 40.7 mm 8.0° 1017.5 hPa 1.8 m/s 0.0 mm 7.7° 1020.2 hPa 2.9 m/s
05:00 8.5° 1017.3 hPa 2.2 m/s 0.0 mm 9.5° 1018.0 hPa 3.0 m/s 40.7 mm 8.4° 1017.5 hPa 1.4 m/s 0.0 mm 8.0° 1020.0 hPa 3.2 m/s
08:00 9.3° 1017.4 hPa 2.6 m/s 0.0 mm 12.1° 1018.4 hPa 3.7 m/s 40.7 mm 9.1° 1017.5 hPa 1.7 m/s 0.0 mm 8.0° 1020.5 hPa 3.5 m/s
11:00 14.0° 1017.7 hPa 2.5 m/s 0.0 mm 15.3° 1019.0 hPa 2.6 m/s 40.7 mm 14.7° 1017.6 hPa 2.5 m/s 0.0 mm 11.0° 1020.6 hPa 3.6 m/s
14:00 15.8° 1017.8 hPa 3.4 m/s 0.0 mm 17.2° 1019.4 hPa 3.5 m/s 40.7 mm 16.5° 1017.4 hPa 3.9 m/s 0.0 mm 13.3° 1020.3 hPa 4.0 m/s
17:00 15.2° 1018.2 hPa 3.9 m/s 0.0 mm 15.7° 1018.6 hPa 3.0 m/s 40.7 mm 15.1° 1018.1 hPa 4.1 m/s 0.0 mm 12.1° 1020.5 hPa 3.5 m/s
20:00 12.8° 1018.5 hPa 4.0 m/s 0.0 mm 13.2° 1019.1 hPa 4.5 m/s 40.7 mm 12.7° 1018.4 hPa 3.8 m/s 0.0 mm 9.3° 1021.7 hPa 3.7 m/s
23:00 11.3° 1019.7 hPa 4.0 m/s 40.7 mm 11.3° 1019.7 hPa 4.0 m/s 40.7 mm 9.2° 1021.8 hPa 3.6 m/s
 07:09     18:40    Daglengte: 11:31 Dinsdag 28 Sep
02:00 9.7° 1020.4 hPa 6.9 m/s 40.6 mm 9.7° 1020.4 hPa 6.9 m/s 40.7 mm 8.4° 1022.2 hPa 3.9 m/s
05:00 7.4° 1022.9 hPa 3.9 m/s 22.3 mm 7.4° 1022.9 hPa 3.9 m/s 22.3 mm
08:00 8.2° 1023.4 hPa 3.5 m/s 22.3 mm 8.2° 1023.4 hPa 3.5 m/s 22.3 mm
11:00 9.2° 1024.6 hPa 2.3 m/s 22.3 mm 9.2° 1024.6 hPa 2.3 m/s 22.3 mm
14:00 9.6° 1025.6 hPa 1.4 m/s 22.3 mm 9.6° 1025.6 hPa 1.4 m/s 22.3 mm
17:00 9.6° 1026.2 hPa 0.8 m/s 22.3 mm 9.6° 1026.2 hPa 0.8 m/s 22.3 mm
20:00 9.3° 1026.6 hPa 0.9 m/s 22.3 mm 9.3° 1026.6 hPa 0.9 m/s 22.3 mm
23:00 8.8° 1027.1 hPa 0.6 m/s 22.7 mm 8.8° 1027.1 hPa 0.6 m/s 22.7 mm
 07:12     18:36    Daglengte: 11:24 Woensdag 29 Sep
02:00 8.6° 1026.8 hPa 1.0 m/s 23.1 mm 8.6° 1026.8 hPa 1.0 m/s 23.1 mm
05:00 8.5° 1026.0 hPa 1.0 m/s 23.6 mm 8.5° 1026.0 hPa 1.0 m/s 23.6 mm
08:00 9.1° 1025.4 hPa 1.5 m/s 23.7 mm 9.1° 1025.4 hPa 1.5 m/s 23.7 mm
11:00 9.9° 1025.0 hPa 1.5 m/s 23.7 mm 9.9° 1025.0 hPa 1.5 m/s 23.7 mm
14:00 10.5° 1024.5 hPa 2.0 m/s 23.7 mm 10.5° 1024.5 hPa 2.0 m/s 23.7 mm
17:00 10.6° 1024.2 hPa 1.9 m/s 23.7 mm 10.6° 1024.2 hPa 1.9 m/s 23.7 mm
20:00 8.9° 1023.8 hPa 2.3 m/s 23.7 mm 8.9° 1023.8 hPa 2.3 m/s 23.7 mm
23:00 7.9° 1023.6 hPa 2.5 m/s 23.7 mm 7.9° 1023.6 hPa 2.5 m/s 23.7 mm
 07:16     18:32    Daglengte: 11:16 Donderdag 30 Sep
02:00 7.8° 1023.1 hPa 2.4 m/s 23.7 mm 7.8° 1023.1 hPa 2.4 m/s 23.7 mm
05:00 6.5° 1022.2 hPa 2.4 m/s 23.7 mm 6.5° 1022.2 hPa 2.4 m/s 23.7 mm
08:00 6.8° 1021.7 hPa 2.3 m/s 23.7 mm 6.8° 1021.7 hPa 2.3 m/s 23.7 mm
11:00 10.9° 1020.9 hPa 2.0 m/s 23.7 mm 10.9° 1020.9 hPa 2.0 m/s 23.7 mm
14:00 12.4° 1020.2 hPa 2.4 m/s 23.7 mm 12.4° 1020.2 hPa 2.4 m/s 23.7 mm
17:00 11.1° 1020.2 hPa 2.1 m/s 23.7 mm 11.1° 1020.2 hPa 2.1 m/s 23.7 mm
20:00 8.3° 1020.6 hPa 2.3 m/s 23.7 mm 8.3° 1020.6 hPa 2.3 m/s 23.7 mm
23:00 7.7° 1020.6 hPa 2.4 m/s 23.7 mm 7.7° 1020.6 hPa 2.4 m/s 23.7 mm
 07:19     18:29    Daglengte: 11:10 Vrijdag 01 Okt
02:00 8.6° 1020.4 hPa 2.7 m/s 23.7 mm 8.6° 1020.4 hPa 2.7 m/s 23.7 mm
05:00 8.5° 1019.9 hPa 3.1 m/s 23.7 mm 8.5° 1019.9 hPa 3.1 m/s 23.7 mm
08:00 7.8° 1019.6 hPa 3.1 m/s 23.7 mm 7.8° 1019.6 hPa 3.1 m/s 23.7 mm
11:00 10.1° 1019.3 hPa 3.2 m/s 23.7 mm 10.1° 1019.3 hPa 3.2 m/s 23.7 mm
14:00 10.7° 1018.4 hPa 3.4 m/s 23.7 mm 10.7° 1018.4 hPa 3.4 m/s 23.7 mm
17:00 9.0° 1018.0 hPa 2.9 m/s 23.7 mm 9.0° 1018.0 hPa 2.9 m/s 23.7 mm
20:00 8.4° 1018.5 hPa 2.6 m/s 23.7 mm 8.4° 1018.5 hPa 2.6 m/s 23.7 mm
 07:22     18:25    Daglengte: 11:03 Zaterdag 02 Okt
02:00 6.4° 1016.9 hPa 3.0 m/s 23.7 mm 6.4° 1016.9 hPa 3.0 m/s 23.7 mm
08:00 7.2° 1014.6 hPa 3.0 m/s 23.8 mm 7.2° 1014.6 hPa 3.0 m/s 23.8 mm
14:00 9.5° 1013.0 hPa 3.3 m/s 23.8 mm 9.5° 1013.0 hPa 3.3 m/s 23.8 mm
20:00 7.9° 1012.5 hPa 2.3 m/s 23.8 mm 7.9° 1012.5 hPa 2.3 m/s 23.8 mm
 07:25     18:21    Daglengte: 10:56 Zondag 03 Okt
02:00 6.7° 1012.0 hPa 2.5 m/s 23.8 mm 6.7° 1012.0 hPa 2.5 m/s 23.8 mm
08:00 6.5° 1011.3 hPa 2.9 m/s 23.8 mm 6.5° 1011.3 hPa 2.9 m/s 23.8 mm
14:00 9.9° 1010.6 hPa 4.1 m/s 23.8 mm 9.9° 1010.6 hPa 4.1 m/s 23.8 mm
20:00 7.1° 1012.5 hPa 3.4 m/s 23.8 mm 7.1° 1012.5 hPa 3.4 m/s 23.8 mm
 07:29     18:17    Daglengte: 10:48 Maandag 04 Okt
02:00 6.9° 1014.3 hPa 3.3 m/s 23.8 mm 6.9° 1014.3 hPa 3.3 m/s 23.8 mm
08:00 6.4° 1014.0 hPa 3.8 m/s 23.9 mm 6.4° 1014.0 hPa 3.8 m/s 23.9 mm
14:00 4.8° 1015.6 hPa 3.1 m/s 27.6 mm 4.8° 1015.6 hPa 3.1 m/s 27.6 mm
20:00 7.8° 1011.6 hPa 1.9 m/s 2.3 mm
 07:32     18:13    Daglengte: 10:41 Dinsdag 05 Okt
02:00 7.3° 1012.2 hPa 1.7 m/s 1.5 mm
08:00 7.1° 1012.4 hPa 1.9 m/s 1.9 mm
14:00 9.5° 1012.9 hPa 2.4 m/s 0.7 mm
20:00 7.7° 1012.6 hPa 2.6 m/s 1.4 mm
 07:35     18:09    Daglengte: 10:34 Woensdag 06 Okt
02:00 7.4° 1012.2 hPa 2.5 m/s 1.7 mm
08:00 7.1° 1011.4 hPa 2.4 m/s 1.4 mm
14:00 9.8° 1011.1 hPa 2.0 m/s 1.4 mm
20:00 7.5° 1011.1 hPa 1.6 m/s 1.9 mm
 07:38     18:05    Daglengte: 10:27 Donderdag 07 Okt
02:00 6.7° 1011.2 hPa 1.9 m/s 1.2 mm
08:00 6.6° 1010.0 hPa 2.3 m/s 1.4 mm
14:00 8.6° 1009.8 hPa 2.0 m/s 1.9 mm
20:00 6.8° 1010.0 hPa 1.7 m/s 1.8 mm
 07:42     18:02    Daglengte: 10:20 Vrijdag 08 Okt
02:00 6.3° 1010.9 hPa 1.3 m/s 2.0 mm
08:00 6.3° 1011.4 hPa 1.4 m/s 2.2 mm
14:00 8.2° 1012.6 hPa 1.4 m/s 2.2 mm
20:00 6.4° 1013.3 hPa 1.3 m/s 2.0 mm
 07:45     17:58    Daglengte: 10:13 Zaterdag 09 Okt
02:00 6.1° 1014.3 hPa 1.5 m/s 1.7 mm
08:00 6.0° 1014.0 hPa 1.7 m/s 1.4 mm
14:00 7.8° 1014.7 hPa 1.6 m/s 0.0 mm
20:00 6.1° 1014.9 hPa 1.6 m/s 1.2 mm
FMI Hirlam - 7.5 km EWN WRFDA - 12 km DWD ICON - 7 km GFS - 25 km Basiskaart






























































Updatetijd (Europe/Amsterdam) Resolutie Lengte Stap
FMI Hirlam 19:15, 01:15, 07:15, 13:15 7.5 km 49h 1h
EWN WRFDA 22:00, 04:00, 10:00, 16:00 12 km 73h 1h
DWD ICON 18:00, 00:00, 06:00, 12:00 7 km 75h 1h
GFS 20:00, 02:00, 08:00, 14:00 25 km 237h 3h
30+ mm
25-30 mm
20-25 mm
15-20 mm
10-15 mm
6-10 mm
4-6 mm
2-4 mm
1-2 mm
0.5-1 mm
0.2-0.5 mm
0.1-0.2 mm
30+ mm
25-30 mm
20-25 mm
15-20 mm
10-15 mm
6-10 mm
4-6 mm
2-4 mm
1-2 mm
0.5-1 mm
0.2-0.5 mm
0.1-0.2 mm
Sneeuwval
Natte sneeuw
Hagel
Vorst
30+ mm
25-30 mm
20-25 mm
15-20 mm
10-15 mm
6-10 mm
4-6 mm
2-4 mm
1-2 mm
0.5-1 mm
0.2-0.5 mm
0.1-0.2 mm
Sneeuwval
Natte sneeuw
Hagel
Vorst
Onweer
50 mm
40 mm
30 mm
26 mm
22 mm
18 mm
14 mm
10 mm
9 mm
8 mm
7 mm
6 mm
5 mm
4.5 mm
4 mm
3.5 mm
3 mm
2.5 mm
2 mm
1.5 mm
1 mm
0.8 mm
0.6 mm
0.4 mm
0.2 mm
0.05 mm
35°
30°
25°
20°
15°
10°
-5°
-10°
-15°
-20°
-25°
-30°
-35°
33> m/s
29 m/s
25 m/s
21 m/s
17 m/s
14 m/s
11 m/s
8 m/s
5 m/s
3 m/s
0 m/s
2600 J/kg
2400 J/kg
2200 J/kg
2000 J/kg
1800 J/kg
1600 J/kg
1400 J/kg
1200 J/kg
1000 J/kg
800 J/kg
600 J/kg
400 J/kg
200 J/kg
70 dBZ
65 dBZ
60 dBZ
55 dBZ
50 dBZ
45 dBZ
40 dBZ
35 dBZ
30 dBZ
25 dBZ
20 dBZ
15 dBZ
10 dBZ
5 dBZ
-1 K
-2 K
-3 K
-4 K
-5 K
-6 K
-7 K
-8 K
-9 K
950 m²/s²
900 m²/s²
850 m²/s²
800 m²/s²
750 m²/s²
700 m²/s²
650 m²/s²
600 m²/s²
550 m²/s²
500 m²/s²
450 m²/s²
400 m²/s²
350 m²/s²
300 m²/s²
250 m²/s²
200 m²/s²
150 m²/s²
100 m²/s²
46 m/s
44 m/s
42 m/s
40 m/s
38 m/s
36 m/s
34 m/s
32 m/s
30 m/s
28 m/s
26 m/s
24 m/s
22 m/s
20 m/s
16 m/s
12 m/s
8 m/s
4 m/s
30 m/s
28 m/s
26 m/s
24 m/s
22 m/s
20 m/s
18 m/s
16 m/s
14 m/s
12 m/s
10 m/s
8 m/s
6 m/s
4 m/s
2 m/s
3.0
2.8
2.6
2.4
2.2
2.0
1.8
1.6
1.4
1.2
1.0
0.8
0.6
0.4
0.2
15
14
13
12
11
10
9
8
7
6
5
4
3
2
1
90%
80%
70%
60%
50%
40%
30%
20%
10%
42
40
38
36
34
32
30
28
26
24
22
20
18
16
14
12
90+ cm
80-90 cm
70-80 cm
60-70 cm
50-60 cm
40-50 cm
30-40 cm
20-30 cm
10-20 cm
1-10 cm
Sneeuwval
Natte sneeuw
Regen
>120 mm
115 mm
110 mm
105 mm
100 mm
95 mm
90 mm
85 mm
80 mm
75 mm
70 mm
65 mm
60 mm
55 mm
50 mm
45 mm
45 mm
40 mm
35 mm
30 mm
25 mm
20 mm
15 mm
10 mm
5 mm
0.1 mm
960 hPa
880 hPa
800 hPa
720 hPa
640 hPa
560 hPa
584 gpdm
568 gpdm
552 gpdm
536 gpdm
520 gpdm
504 gpdm
488 gpdm
Extreem zwaar Noodweer Kans op onweer
15% 15% 5% 50% 15%

Dag




Kaart






35°
30°
25°
20°
15°
10°
-5°
-10°
-15°
-20°
-25°
-30°
-35°
33> m/s
29 m/s
25 m/s
21 m/s
17 m/s
14 m/s
11 m/s
8 m/s
5 m/s
3 m/s
0 m/s
Extreem zwaar Noodweer Kans op onweer